Location: Clatteringshaws Loch
(55.0508°N, 4.2860°W)
Time: 19:26:05
(UTC+01:00)

Amateur Radio Satellites - All Passes

Search period start: 20 April 2014 18:56
Search period end: 21 April 2014 18:56
Location: Clatteringshaws Loch, 55.0508°N, 4.2860°W

Satellite Date Start Highest point End Downlink Frequencies (MHz)
Time Altitude Azimuth
AO-7 20 Apr 19:01:16 19:06:19 17° 279° (W) 19:11:25 29.400 - 29.500 MHz
STRAND 1 20 Apr 19:04:09 19:08:05 22° 90° (E) 19:11:59 ?
SO-50 20 Apr 19:09:11 19:13:14 31° 342° (NNW) 19:17:20 436.795 FM
JAS-2 20 Apr 19:15:04 19:20:40 87° 72° (ENE) 19:25:55 435.800 - 435.900 CW/SSB, 435.910 FM
Hamsat 20 Apr 19:25:26 19:29:09 29° 266° (W) 19:32:55 145.90 MHz
Saudisat 1A 20 Apr 19:40:29 19:44:51 56° 230° (SW) 19:49:09 436.775 MHz
UOSAT-12 20 Apr 19:44:57 19:49:34 70° 322° (NW) 19:54:17 437.025 FM, 437.400 FM
SO-67 20 Apr 20:09:14 20:12:30 36° 263° (W) 20:15:47 435.3500 MHz FM
ISS 20 Apr 20:12:59 20:16:06 36° 196° (SSW) 20:19:13 145.800 FM
HO-68 20 Apr 20:24:51 20:31:44 54° 60° (ENE) 20:38:40 435.675 MHz FM
STRAND 1 20 Apr 20:42:44 20:47:50 74° 290° (WNW) 20:52:55 ?
SO-50 20 Apr 20:51:09 20:54:59 26° 6° (N) 20:58:51 436.795 FM
FUNcube-1 20 Apr 20:59:39 21:01:33 13° 51° (NE) 21:03:27 145.950 - 145.970 MHz USB
JAS-2 20 Apr 21:02:48 21:06:32 18° 272° (W) 21:10:09 435.800 - 435.900 CW/SSB, 435.910 FM
Oscar 11 20 Apr 21:04:00 21:07:49 31° 62° (ENE) 21:11:39 145.825 FM, Beacon 2401.500 USB
Saudisat 1A 20 Apr 21:22:25 21:23:33 11° 250° (WSW) 21:24:40 436.775 MHz
UOSAT-12 20 Apr 21:26:19 21:30:26 30° 345° (NNW) 21:34:37 437.025 FM, 437.400 FM
ISS 20 Apr 21:50:22 21:52:11 14° 215° (SW) 21:54:00 145.800 FM
HO-68 20 Apr 22:12:51 22:19:39 45° 262° (W) 22:26:30 435.675 MHz FM
STRAND 1 20 Apr 22:22:58 22:26:17 18° 311° (NW) 22:29:35 ?
SO-50 20 Apr 22:32:07 22:36:32 45° 30° (NNE) 22:41:01 436.795 FM
FUNcube-1 20 Apr 22:33:07 22:37:16 69° 72° (ENE) 22:41:26 145.950 - 145.970 MHz USB
MaSat-1 20 Apr 22:33:30 22:36:06 52° 123° (ESE) 22:38:33 437.345 MHz
Oscar 11 20 Apr 22:39:51 22:43:56 41° 262° (W) 22:48:05 145.825 FM, Beacon 2401.500 USB
UOSAT-12 20 Apr 23:07:47 23:11:49 27° 9° (N) 23:15:51 437.025 FM, 437.400 FM
Sapphire 20 Apr 23:56:55 23:59:12 13° 103° (ESE) 00:01:30 437.095 MHz 1200 baud AX-25 AFSK
HO-68 21 Apr 00:08:47 00:09:23 10° 285° (WNW) 00:09:58 435.675 MHz FM
FUNcube-1 21 Apr 00:11:23 00:14:12 17° 271° (W) 00:17:01 145.950 - 145.970 MHz USB
SO-50 21 Apr 00:12:45 00:17:15 52° 231° (SW) 00:21:48 436.795 FM
MaSat-1 21 Apr 00:13:16 00:14:45 14° 323° (NW) 00:16:12 437.345 MHz
OPAL 21 Apr 00:32:08 00:34:47 14° 41° (NE) 00:37:28 ?
PCSat 21 Apr 00:38:55 00:43:23 27° 113° (ESE) 00:47:52 145.825 MHz
UOSAT-12 21 Apr 00:48:16 00:52:54 51° 32° (NNE) 00:57:31 437.025 FM, 437.400 FM
Sapphire 21 Apr 01:36:15 01:41:34 58° 124° (ESE) 01:46:54 437.095 MHz 1200 baud AX-25 AFSK
Oscar 19 21 Apr 01:48:02 01:51:36 18° 87° (E) 01:55:08 437.125 CW, 437.150 USB
SO-50 21 Apr 01:55:56 01:56:53 11° 251° (WSW) 01:57:49 436.795 FM
Oscar 16 21 Apr 01:56:16 02:00:18 22° 89° (E) 02:04:18 437.025 USB, Beacon 2401.1428
OPAL 21 Apr 02:07:45 02:12:40 52° 62° (ENE) 02:17:40 ?
KITSAT 1 21 Apr 02:09:28 02:15:04 21° 103° (ESE) 02:20:39 435.175 FM
PCSat 21 Apr 02:20:56 02:26:22 77° 314° (NW) 02:31:50 145.825 MHz
UOSAT-12 21 Apr 02:28:35 02:33:05 45° 234° (SW) 02:37:34 437.025 FM, 437.400 FM
Uribyol 2 21 Apr 02:33:51 02:38:03 24° 91° (E) 02:42:15 436.500 FM
AO-27 21 Apr 03:14:24 03:19:25 46° 99° (E) 03:24:23 436.795 MHz FM
Gurwin Techsat 1B 21 Apr 03:15:02 03:18:54 20° 87° (E) 03:22:44 435.225 FM
AO-Echo 21 Apr 03:18:01 03:22:35 40° 97° (E) 03:27:02 ?
Sapphire 21 Apr 03:20:04 03:25:14 43° 326° (NW) 03:30:26 437.095 MHz 1200 baud AX-25 AFSK
ITAMSAT 1 21 Apr 03:24:43 03:29:49 54° 101° (E) 03:34:53 435.822 SSB
Oscar 19 21 Apr 03:26:26 03:31:41 89° 287° (WNW) 03:36:54 437.125 CW, 437.150 USB
Oscar 16 21 Apr 03:35:01 03:40:14 75° 290° (WNW) 03:45:25 437.025 USB, Beacon 2401.1428
OPAL 21 Apr 03:47:17 03:51:48 32° 263° (W) 03:56:25 ?
KITSAT 1 21 Apr 04:01:04 04:09:06 69° 126° (SE) 04:17:10 435.175 FM
TMSAT-1 21 Apr 04:01:50 04:06:37 33° 94° (E) 04:11:22 436.925 FM
PCSat 21 Apr 04:05:48 04:10:35 30° 338° (NNW) 04:15:23 145.825 MHz
Uribyol 2 21 Apr 04:12:52 04:18:01 68° 291° (WNW) 04:23:10 436.500 FM
JAS-1B 21 Apr 04:32:49 04:37:51 31° 93° (E) 04:42:53 435.800 - 435.900 CW/SSB
STRAND 1 21 Apr 04:50:40 04:53:37 16° 47° (NE) 04:56:35 ?
AO-27 21 Apr 04:54:09 04:58:53 37° 299° (WNW) 05:03:37 436.795 MHz FM
Gurwin Techsat 1B 21 Apr 04:54:13 04:59:34 84° 288° (WNW) 05:04:53 435.225 FM
AO-7 21 Apr 04:56:49 05:04:02 32° 92° (E) 05:11:14 29.400 - 29.500 MHz
AO-Echo 21 Apr 04:56:57 05:01:24 37° 298° (WNW) 05:05:44 ?
ITAMSAT 1 21 Apr 05:04:35 05:09:09 32° 301° (WNW) 05:13:42 435.822 SSB
Sapphire 21 Apr 05:05:35 05:09:59 24° 351° (N) 05:14:22 437.095 MHz 1200 baud AX-25 AFSK
Oscar 19 21 Apr 05:06:36 05:10:26 21° 308° (NW) 05:14:16 437.125 CW, 437.150 USB
MaSat-1 21 Apr 05:12:05 05:14:00 17° 40° (NE) 05:16:04 437.345 MHz
Oscar 16 21 Apr 05:15:23 05:18:51 18° 311° (NW) 05:22:19 437.025 USB, Beacon 2401.1428
Uosat F 21 Apr 05:16:06 05:20:59 50° 100° (E) 05:25:50 435.120 FM
TMSAT-1 21 Apr 05:41:39 05:46:48 52° 295° (WNW) 05:51:55 436.925 FM
RS-15 21 Apr 05:50:50 05:58:27 22° 99° (E) 06:05:54 29.354 - 29.394 USB, Beacon 29.352 USB
PCSat 21 Apr 05:51:16 05:55:36 23° 3° (N) 05:59:55 145.825 MHz
Uribyol 2 21 Apr 05:53:29 05:56:41 17° 312° (NW) 05:59:53 436.500 FM
KITSAT 1 21 Apr 05:56:58 06:04:55 54° 331° (NNW) 06:12:53 435.175 FM
JAS-1B 21 Apr 06:23:23 06:29:01 55° 295° (WNW) 06:34:35 435.800 - 435.900 CW/SSB
Oscar 10/S400 21 Apr 06:23:54 07:01:25 45° 155° (SSE) 15:16:13 145.825 - 145.975 CW/USB, Beacon 145.810 USB
STRAND 1 21 Apr 06:26:54 06:31:57 63° 68° (ENE) 06:37:01 ?
AO-40 21 Apr 06:27:29 10:35:54 22° 180° (S) 15:30:52 Beacon 2401.320
Gurwin Techsat 1B 21 Apr 06:35:03 06:38:53 21° 309° (NW) 06:42:42 435.225 FM
AO-27 21 Apr 06:36:31 06:37:06 10° 321° (NW) 06:37:42 436.795 MHz FM
AO-7 21 Apr 06:49:24 06:57:45 82° 295° (WNW) 07:06:05 29.400 - 29.500 MHz
MaSat-1 21 Apr 06:49:52 06:52:35 51° 237° (WSW) 06:55:41 437.345 MHz
Sapphire 21 Apr 06:50:27 06:55:03 27° 17° (NNE) 06:59:39 437.095 MHz 1200 baud AX-25 AFSK
Uosat F 21 Apr 06:55:12 06:59:40 33° 301° (WNW) 07:04:07 435.120 FM
Hamsat 21 Apr 07:03:31 07:07:27 32° 95° (E) 07:11:23 145.90 MHz
TMSAT-1 21 Apr 07:23:05 07:25:40 14° 316° (NW) 07:28:15 436.925 FM
SO-67 21 Apr 07:28:06 07:29:23 12° 86° (E) 07:30:39 435.3500 MHz FM
PCSat 21 Apr 07:35:27 07:40:29 36° 29° (NNE) 07:45:29 145.825 MHz
KITSAT 1 21 Apr 07:54:32 08:02:03 39° 359° (N) 08:09:33 435.175 FM
RS-15 21 Apr 07:57:37 08:08:38 66° 125° (SE) 08:19:23 29.354 - 29.394 USB, Beacon 29.352 USB
JAS-2 21 Apr 08:00:25 08:05:24 39° 97° (E) 08:10:44 435.800 - 435.900 CW/SSB, 435.910 FM
STRAND 1 21 Apr 08:07:21 08:11:34 26° 268° (W) 08:15:49 ?
JAS-1B 21 Apr 08:15:27 08:18:31 15° 320° (NW) 08:21:32 435.800 - 435.900 CW/SSB
Sapphire 21 Apr 08:34:07 08:39:31 60° 41° (NE) 08:44:53 437.095 MHz 1200 baud AX-25 AFSK
Hamsat 21 Apr 08:39:28 08:43:32 39° 294° (WNW) 08:47:36 145.90 MHz
AO-7 21 Apr 08:42:41 08:49:38 31° 319° (NW) 08:56:36 29.400 - 29.500 MHz
SO-67 21 Apr 08:59:32 09:03:04 81° 284° (WNW) 09:06:34 435.3500 MHz FM
PCSat 21 Apr 09:18:57 09:24:25 78° 232° (SW) 09:29:50 145.825 MHz
HO-68 21 Apr 09:32:16 09:38:15 27° 90° (E) 09:44:12 435.675 MHz FM
JAS-2 21 Apr 09:45:41 09:50:40 44° 296° (WNW) 09:56:00 435.800 - 435.900 CW/SSB, 435.910 FM
KITSAT 1 21 Apr 09:51:18 09:59:14 52° 27° (NNE) 10:07:06 435.175 FM
RS-15 21 Apr 10:10:15 10:21:17 64° 333° (NNW) 10:32:10 29.354 - 29.394 USB, Beacon 29.352 USB
Sapphire 21 Apr 10:17:50 10:22:46 37° 243° (WSW) 10:27:41 437.095 MHz 1200 baud AX-25 AFSK
Oscar 11 21 Apr 10:20:29 10:23:59 23° 91° (E) 10:27:28 145.825 FM, Beacon 2401.500 USB
SO-67 21 Apr 10:34:25 10:35:38 12° 305° (NW) 10:36:51 435.3500 MHz FM
AO-7 21 Apr 10:35:29 10:40:01 16° 345° (NNW) 10:44:33 29.400 - 29.500 MHz
PCSat 21 Apr 11:03:27 11:07:03 18° 253° (WSW) 11:10:38 145.825 MHz
HO-68 21 Apr 11:19:35 11:26:48 84° 292° (WNW) 11:34:00 435.675 MHz FM
Saudisat 1A 21 Apr 11:32:47 11:36:49 34° 123° (ESE) 11:40:52 436.775 MHz
JAS-2 21 Apr 11:33:00 11:34:38 11° 319° (NW) 11:36:18 435.800 - 435.900 CW/SSB, 435.910 FM
Oscar 19 21 Apr 11:35:54 11:38:18 13° 44° (NE) 11:40:42 437.125 CW, 437.150 USB
Oscar 16 21 Apr 11:43:46 11:46:44 16° 47° (NE) 11:49:42 437.025 USB, Beacon 2401.1428
KITSAT 1 21 Apr 11:47:03 11:55:09 73° 233° (SW) 12:03:11 435.175 FM
FUNcube-1 21 Apr 11:51:23 11:55:34 55° 101° (E) 11:59:48 145.950 - 145.970 MHz USB
Oscar 11 21 Apr 11:56:13 12:00:31 56° 291° (WNW) 12:04:47 145.825 FM, Beacon 2401.500 USB
Uribyol 2 21 Apr 12:21:49 12:25:08 18° 49° (NE) 12:28:28 436.500 FM
RS-15 21 Apr 12:24:58 12:35:39 52° 5° (N) 12:46:20 29.354 - 29.394 USB, Beacon 29.352 USB
AO-7 21 Apr 12:25:22 12:29:42 16° 13° (NNE) 12:34:03 29.400 - 29.500 MHz
AO-Echo 21 Apr 13:00:36 13:04:37 24° 55° (NE) 13:08:33 ?
AO-27 21 Apr 13:01:29 13:05:55 29° 57° (ENE) 13:10:21 436.795 MHz FM
Gurwin Techsat 1B 21 Apr 13:06:10 13:09:09 15° 46° (NE) 13:12:08 435.225 FM
HO-68 21 Apr 13:07:53 13:13:43 28° 315° (NW) 13:19:32 435.675 MHz FM
ITAMSAT 1 21 Apr 13:11:28 13:16:04 33° 59° (ENE) 13:20:40 435.822 SSB
Oscar 19 21 Apr 13:11:37 13:16:35 51° 65° (ENE) 13:21:37 437.125 CW, 437.150 USB
Saudisat 1A 21 Apr 13:11:52 13:16:18 58° 324° (NW) 13:20:43 436.775 MHz
Oscar 16 21 Apr 13:20:07 13:25:11 62° 68° (ENE) 13:30:19 437.025 USB, Beacon 2401.1428
FUNcube-1 21 Apr 13:28:20 13:31:45 24° 300° (WNW) 13:35:13 145.950 - 145.970 MHz USB
Oscar 11 21 Apr 13:34:18 13:35:51 12° 311° (NW) 13:37:24 145.825 FM, Beacon 2401.500 USB
JAS-1B 21 Apr 13:37:54 13:42:14 18° 44° (NE) 13:46:13 435.800 - 435.900 CW/SSB
KITSAT 1 21 Apr 13:43:25 13:49:18 23° 256° (WSW) 13:55:09 435.175 FM
TMSAT-1 21 Apr 13:51:46 13:55:46 22° 53° (NE) 13:59:47 436.925 FM
Uribyol 2 21 Apr 13:58:42 14:03:50 72° 70° (ENE) 14:09:01 436.500 FM
AO-7 21 Apr 14:13:15 14:19:58 29° 39° (NE) 14:26:42 29.400 - 29.500 MHz
AO-Echo 21 Apr 14:37:46 14:42:58 77° 255° (WSW) 14:48:02 ?
RS-15 21 Apr 14:38:37 14:49:38 77° 37° (NE) 15:00:45 29.354 - 29.394 USB, Beacon 29.352 USB
AO-27 21 Apr 14:40:02 14:45:10 61° 258° (WSW) 14:50:20 436.795 MHz FM
Gurwin Techsat 1B 21 Apr 14:42:57 14:48:10 59° 67° (ENE) 14:53:24 435.225 FM
ITAMSAT 1 21 Apr 14:50:22 14:55:25 52° 259° (W) 15:00:31 435.822 SSB
Oscar 19 21 Apr 14:51:34 14:56:11 32° 266° (W) 15:00:50 437.125 CW, 437.150 USB
Saudisat 1A 21 Apr 14:52:53 14:56:42 27° 347° (NNW) 15:00:30 436.775 MHz
HO-68 21 Apr 14:56:43 14:59:13 12° 339° (NNW) 15:01:42 435.675 MHz FM
Uosat F 21 Apr 14:58:52 15:03:09 29° 57° (ENE) 15:07:27 435.120 FM
Oscar 16 21 Apr 15:00:38 15:04:57 27° 268° (W) 15:09:19 437.025 USB, Beacon 2401.1428
JAS-1B 21 Apr 15:24:40 15:31:56 60° 66° (ENE) 15:38:07 435.800 - 435.900 CW/SSB
TMSAT-1 21 Apr 15:29:49 15:35:08 87° 253° (WSW) 15:40:29 436.925 FM
Uribyol 2 21 Apr 15:39:49 15:43:52 23° 270° (W) 15:47:57 436.500 FM
OPAL 21 Apr 15:49:06 15:53:59 38° 99° (E) 15:58:50 ?
AO-7 21 Apr 16:03:27 16:11:41 75° 63° (ENE) 16:19:59 29.400 - 29.500 MHz
ISS 21 Apr 16:12:28 16:15:00 20° 151° (SSE) 16:17:33 145.800 FM
SO-50 21 Apr 16:14:22 16:18:38 44° 126° (SE) 16:22:57 436.795 FM
AO-Echo 21 Apr 16:19:40 16:22:34 15° 275° (W) 16:25:27 ?
Gurwin Techsat 1B 21 Apr 16:23:55 16:28:30 29° 268° (W) 16:33:07 435.225 FM
AO-27 21 Apr 16:24:00 16:25:48 12° 278° (W) 16:27:37 436.795 MHz FM
Hamsat 21 Apr 16:31:33 16:32:50 11° 49° (NE) 16:34:07 145.90 MHz
Saudisat 1A 21 Apr 16:33:42 16:37:29 26° 12° (NNE) 16:41:15 436.775 MHz
Uosat F 21 Apr 16:36:44 16:41:42 59° 258° (WSW) 16:46:41 435.120 FM
RS-15 21 Apr 16:51:18 17:01:29 48° 244° (WSW) 17:11:52 29.354 - 29.394 USB, Beacon 29.352 USB
TMSAT-1 21 Apr 17:12:22 17:15:52 18° 274° (W) 17:19:24 436.925 FM
JAS-1B 21 Apr 17:16:05 17:22:55 37° 264° (W) 17:28:50 435.800 - 435.900 CW/SSB
OPAL 21 Apr 17:28:01 17:32:58 45° 299° (WNW) 17:37:56 ?
ISS 21 Apr 17:48:02 17:51:14 43° 171° (S) 17:54:27 145.800 FM
SO-50 21 Apr 17:54:51 17:59:14 49° 328° (NNW) 18:03:41 436.795 FM
AO-7 21 Apr 17:57:49 18:05:13 35° 266° (W) 18:12:42 29.400 - 29.500 MHz
Hamsat 21 Apr 18:03:49 18:07:57 55° 69° (ENE) 18:12:09 145.90 MHz
SO-67 21 Apr 18:08:46 18:10:42 14° 57° (ENE) 18:12:39 435.3500 MHz FM
Saudisat 1A 21 Apr 18:13:31 18:17:55 56° 35° (NE) 18:22:16 436.775 MHz
Uosat F 21 Apr 18:20:19 18:21:36 11° 278° (W) 18:22:53 435.120 FM
JAS-2 21 Apr 18:20:44 18:25:46 39° 62° (ENE) 18:30:34 435.800 - 435.900 CW/SSB, 435.910 FM
HO-68 21 Apr 18:24:36 18:28:51 17° 32° (NNE) 18:33:08 435.675 MHz FM
UOSAT-12 21 Apr 18:25:41 18:30:08 50° 128° (SE) 18:34:40 437.025 FM, 437.400 FM
STRAND 1 21 Apr 18:32:04 18:34:08 12° 83° (E) 18:36:11 ?
